This is the latest recevied weather packets stored in our database for station/object W2OBX. If no packets are shown the sender has not sent any weather packets the latest 10 day(s).
| Time | Temp. | Humidity | Pressure | Rain* | Wind** | Luminosity | Snow |
|---|---|---|---|---|---|---|---|
| 1777749182 | 17.22° C | 41% | 1014.4 hPa | 0 mm | - | 779 W/m² | - |
| 1777748879 | 16.67° C | 37% | 1014.8 hPa | 0 mm | - | 96 W/m² | - |
| 1777748576 | 16.67° C | 39% | 1014.8 hPa | 0 mm | - | 87 W/m² | - |
| 1777748271 | 16.67° C | 40% | 1014.8 hPa | 0 mm | - | 795 W/m² | - |
| 1777747967 | 16.67° C | 39% | 1014.9 hPa | 0 mm | - | 95 W/m² | - |
| 1777747664 | 17.78° C | 36% | 1015 hPa | 0 mm | - | 66 W/m² | - |
| 1777747360 | 18.33° C | 36% | 1014.9 hPa | 0 mm | - | 470 W/m² | - |
| 1777747057 | 18.33° C | 36% | 1014.8 hPa | 0 mm | - | 801 W/m² | - |
| 1777746753 | 18.33° C | 38% | 1015.1 hPa | 0 mm | - | 823 W/m² | - |
| 1777746448 | 17.22° C | 38% | 1015.1 hPa | 0 mm | - | 824 W/m² | - |
| 1777746144 | 17.22° C | 37% | 1014.9 hPa | 0 mm | - | 89 W/m² | - |
| 1777745841 | 17.78° C | 35% | 1015 hPa | 0 mm | - | 83 W/m² | - |
| 1777745540 | 17.22° C | 37% | 1014.9 hPa | 0 mm | - | 827 W/m² | - |
| 1777745237 | 17.78° C | 38% | 1015.1 hPa | 0 mm | - | 114 W/m² | - |
| 1777744934 | 18.33° C | 35% | 1015.1 hPa | 0 mm | - | 89 W/m² | - |
| 1777744634 | 18.33° C | 33% | 1015.3 hPa | 0 mm | - | 810 W/m² | - |
| 1777744329 | 18.33° C | 37% | 1015.1 hPa | 0 mm | - | 721 W/m² | - |
| 1777744026 | 17.78° C | 35% | 1015.3 hPa | 0 mm | - | 801 W/m² | - |
| 1777743723 | 17.78° C | 36% | 1015.5 hPa | 0 mm | - | 785 W/m² | - |
| 1777743420 | 17.78° C | 36% | 1015.5 hPa | 0 mm | - | 788 W/m² | - |
| 1777743118 | 17.78° C | 35% | 1015.6 hPa | 0 mm | - | 789 W/m² | - |
| 1777742815 | 16.67° C | 36% | 1015.5 hPa | 0 mm | - | 784 W/m² | - |
| 1777742511 | 16.67° C | 37% | 1015.6 hPa | 0 mm | - | 818 W/m² | - |
| 1777742207 | 16.67° C | 36% | 1015.7 hPa | 0 mm | - | 785 W/m² | - |
| 1777741904 | 16.67° C | 36% | 1015.7 hPa | 0 mm | - | 781 W/m² | - |
* Rain latest hour (hover to see other rain measurements)
** Current wind speed in m/s (hover to see current wind gust speed)